Regional Weather Roundup
Issued by NWS

Home | Current Version | Previous Version | Text Only | Print | Product List | Glossary On
Versions: 1 2 3 4 5 6 7 8 9 10 11 12 13 14 15 16 17 18 19 20 21 22 23 24 25 26 27 28 29 30 31 32 33 34 35 36 37 38 39 40 41 42 43 44 45 46 47 48 49 50
000
ASUS44 KFWD 310115
RWRTX
NORTH TEXAS HOURLY WEATHER ROUNDUP
NATIONAL WEATHER SERVICE FORT WORTH TX
800 PM CDT THU JUL 30 2015

NOTE: "FAIR" INDICATES FEW OR NO CLOUDS BELOW 12,000 FEET WITH NO
SIGNIFICANT WEATHER AND/OR OBSTRUCTIONS TO VISIBILITY.

TXZ118-119-310200-
DALLAS/FORT WORTH METROPLEX

CITY           SKY/WX    TMP DP  RH WIND       PRES   REMARKS
DFW AIRPORT    PTCLDY    97  63  32 NE8       29.99R HX  98
DALLAS LOVE    PTCLDY    98  63  31 E7        29.98S HX 100
FTW MEACHAM    CLEAR     99  60  27 NE7       29.99R HX  99
DAL-EXECUTIVE  CLEAR     98  62  30 E8        29.99R HX  99
FTW-ALLIANCE   PTCLDY    96  60  30 NE5       30.00R HX  96
FTW-NAS-JRB    CLEAR     99  62  29 NE6       29.99R HX 100
ARLINGTON      PTCLDY   100  61  27 NE6       29.99R HX 101
ADDISON        PTCLDY    99  61  28 E8        30.01R HX  99
MESQUITE       CLEAR     95  64  36 CALM      29.99S HX  97
LANCASTER      CLEAR     96  61  30 NE5       30.00S HX  96
$$

TXZ091>094-102>105-117-120-121-131>134-310200-
NORTH CENTRAL TEXAS

CITY           SKY/WX    TMP DP  RH WIND       PRES   REMARKS
SHRMAN/DENISON CLEAR     94  68  43 CALM      30.02S HX  98
GAINESVILLE    CLEAR     93  66  41 NE6       30.04S HX  96
BOWIE          CLEAR     92  69  47 E3        30.03S HX  96
DECATUR        CLEAR     94  63  34 E6        30.03S HX  95
DENTON         CLEAR     96  63  33 NE7       29.99S HX  97
MCKINNEY       CLEAR     95  67  39 NE6       30.00R HX  99
GREENVILLE     MOCLDY    91  64  40 NE13G20   30.02R HX  93
ROCKWALL       CLEAR     95  67  39 NE3       29.99R HX  99
TERRELL        CLEAR     96  67  38 NE3       30.00R HX 100
WAXAHACHIE     CLEAR     94  67  40 CALM      30.01R HX  97
CLEBURNE       CLEAR     97  63  32 E6        30.02R HX  98
GRANBURY       CLOUDY    99  61  28 E5        30.01R HX  99
$$

TXZ083>090-098>101-113>116-127>130-139>142-154-155-310200-
WESTERN NORTH TEXAS

CITY           SKY/WX    TMP DP  RH WIND       PRES   REMARKS
WICHITA FALLS  CLEAR     96  65  35 E12       30.02R HX  98
WF-KICKAPOO    CLEAR     97  63  32 E6        30.03R HX  98
VERNON         PTCLDY    95  61  32 E12       30.05S HX  95
ABILENE        CLEAR     94  65  38 SE9       30.06R HX  96
ABILENE-DYESS  CLEAR     94  65  39 E8        30.04R HX  96
BRECKENRIDGE   CLEAR     95  63  33 E5        30.03R HX  96
GRAHAM         CLEAR     93  70  47 E3        30.01S HX  98
MINERAL WELLS  CLEAR     94  67  41 NE7       30.01R HX  97
STEPHENVILLE   CLEAR     94  63  35 CALM      30.06R HX  95
COMANCHE       PTCLDY    92  67  43 NE3       30.04R HX  95
BROWNWOOD      CLEAR     91  64  40 NE5       30.04R HX  93
COLEMAN        CLEAR     94  64  37 E6        30.06R HX  95
BRADY          MOCLDY    97  61  30 E8        30.04S HX  97
$$

TXZ143>147-156>162-174-175-310200-
CENTRAL TEXAS

CITY           SKY/WX    TMP DP  RH WIND       PRES   REMARKS
WACO           CLEAR     97  65  34 E6        29.98R HX  99
WACO-TSTC      CLEAR     95  64  36 CALM      29.98R HX  97
WACO-MCGREGOR  CLEAR     99  63  30 NE6       29.99  HX 100
HILLSBORO      CLEAR     96  61  30 NE6       30.00R HX  96
CORSICANA      CLEAR     98  66  34 NE3       30.00R HX 101
MEXIA          CLEAR     94  67  41 E5        29.99R HX  97
HEARNE         PTCLDY    96  68  40 CALM      29.97S HX 101
CAMERON        CLEAR     95  69  42 CALM      29.97R HX 100
TEMPLE         PTCLDY    95  63  34 NE5       29.99R HX  96
KILLEEN        PTCLDY    96  62  31 SE7       30.00R HX  97
KILLEEN-SKYLRK PTCLDY    97  63  32 SE6       29.99R HX  98
FORT HOOD      PTCLDY    97  62  31 E8        29.99R HX  97
GATESVILLE     PTCLDY    97  64  34 CALM      30.02R HX  99
HAMILTON       CLEAR     95  60  30 E6        30.04R HX  95
LAMPASAS       CLEAR     96  63  33 E5        30.01S HX  97
$$

TXZ095>097-106>112-122>126-135>138-148>153-164>167-310200-
EAST TEXAS

CITY           SKY/WX    TMP DP  RH WIND       PRES   REMARKS
PARIS          PTCLDY    86  68  54 E14       30.04S
SULPHUR SPRNGS PTCLDY    89  68  49 NE12      30.05R HX  92
MOUNT PLEASANT PTCLDY    87  69  54 E6        30.05R HX  90
GILMER         PTCLDY    83  72  69 NE7       30.03R
MINEOLA        MOCLDY    93  68  43 NE9       30.02R HX  97
TYLER          CLEAR     97  69  40 NE3       30.00R HX 103
LONGVIEW       PTCLDY    89  73  59 E14       30.01R HX  97
MARSHALL       MOCLDY    89  74  62 E9        30.06F HX  98
ATHENS         CLEAR     95  68  41 CALM      29.99R HX  99
PALESTINE      CLEAR     96  68  40 NE3       30.00R HX 100
JACKSONVILLE   PTCLDY    95  66  38 NE3       30.03R HX  98
HENDERSON      PTCLDY    91  69  48 NE6       30.01R HX  96
CENTER         LGT RAIN  79  76  90 S8        30.04R
NACOGDOCHES    MOCLDY    88  72  58 E10G22    30.03R THUNDER HX  94
LUFKIN         TSTM      78  73  84 E6        30.02R
$$

SUPPLEMENTAL OBSERVATIONS (CENTRAL)

CITY           SKY/WX    TMP DP  RH WIND       PRES   REMARKS
LAKE TEXOMA      N/A     88  70  55 E7          N/A  HX  92
CADDO GRASSLND   N/A     88  70  55 E3G12       N/A  HX  92
PAT MAYSE LAKE   N/A     84  70  61 NE7         N/A
GREENVILLE       N/A     90  70  51 E13G26      N/A  HX  95
CEDAR HILL       N/A     95  64  36 CALM        N/A  HX  97
ATHENS           N/A     93  68  43 CALM        N/A  HX  97
LAKE LIMESTONE   N/A     95  68  41 E1          N/A  HX  99
MCGREGOR         N/A     97  63  32 SE5         N/A  HX  98
TEMPLE           N/A     93  63  36 E2          N/A  HX  94
$$

SUPPLEMENTAL OBSERVATIONS (WEST)

CITY           SKY/WX    TMP DP  RH WIND       PRES   REMARKS
MILLERS CREEK    N/A     93  63  36 SE5         N/A  HX  94
POSSUM KINGDOM   N/A     95  63  34 E3          N/A  HX  96
LBJ GRASSLAND    N/A     95  66  38 NE2         N/A  HX  98
GRANBURY         N/A    N/A N/A N/A E7          N/A
COMANCHE         N/A     91  63  38 NE5         N/A  HX  92
HAMBY            N/A     93  64  38 SE6         N/A  HX  95
$$

SUPPLEMENTAL OBSERVATIONS (EAST)

CITY           SKY/WX    TMP DP  RH WIND       PRES   REMARKS
CLARKSVILLE      N/A     82  70  65 E5          N/A
TEXARKANA        N/A     81  75  83 CALM        N/A
LINDEN           N/A     82  72  69 E5          N/A
CADDO LAKE       N/A     82  70  65 E2G15       N/A
GILMER           N/A     86  72  62 E5G13       N/A  HX  92
HENDERSON        N/A     91  68  46 NE13G24     N/A  HX  95
N SABINE NF      N/A     84  72  65 MISG        N/A
S SABINE NF      N/A     79  75  89 CALM        N/A
$$

SUPPLEMENTAL OBSERVATIONS ARE A COLLECTION OF AUTOMATED INSTRUMENTS
THAT ARE MAINTAINED BY A VARIETY OF FEDERAL AND STATE AGENCIES.
CERTAIN ELEMENTS...SUCH AS HUMIDITY VALUES AND SUSTAINED WIND
SPEEDS...MAY BE APPROXIMATED.




USA.gov is the U.S. government's official web portal to all federal, state and local government web resources and services.